STARLINK-11655, 63675

Orbit data source: Space-Track

STARLINK-11655, 63675 is a payload satellite owned by SpaceX/Seattle (US) in LEO that was launched on Mon, 28 Apr 2025 UTC via an FALCON 9 launch vehicle from the Air Force Eastern Test Range (AFETR). Payload-class satellites include a variety of spacecraft equipped with specific instruments for various scientific and technological missions. These include communications satellites like Starlink; space stations such as the ISS; scientific satellites like the Hubble; Earth observation satellites from companies like Planet Labs, Umbra, and HawkEye 360; GPS; miniature CubeSats for education and research; and military/defense satellites.

Loading next visibility...
Identifier
63675, 2025-085M
Orbit
LEO
Country
Flag of USUS
Related business
Manufacturer
SpaceX/Seattle
Mission
Operational Commercial Communications
Bus & Motor
STARLINK V2MD, Unknown motor
Mass
960 kg wet, ~910 kg dry
Launch date (UTC)
2025-04-28 (1 year ago)
Launch vehicle
FALCON 9
Launch site
Air Force Eastern Test Range (AFETR)
Object type
Payload
Rocket body
Debris
Shape & HBR
Box + 2 Pan, 18.1 m
Radar Cross Section
36.964 m², Large (>1 m²)

Expand to show TLE details & history
Last TLE update: 21 hours ago

TLE from 21 hours ago
0 STARLINK-11655
1 63675U 25085M   26170.99194929  .00145028  00000-0  11097-2 0  9995
2 63675  43.0025  21.5617 0003671 263.2500  96.7950 15.70930497 66339
Epoch: 2026-06-19T23:48Z
TLE epoch observation values (Epoch: 2026-06-19T23:48:24.418Z)
Latitude
-0.00003°
Longitude
116.24695°
Altitude
356.301 km
Speed
7.697 km/s
True Right ascension
01h 26m 14s
True Declination
0° 00' 00"
Sunlit
Object was in daylight at epoch
Visualization orbit readout
Latitude
Unknown
Longitude
Unknown
Altitude
Unknown
Speed
Unknown
Apparent Right ascension
Unknown
Apparent Declination
Unknown
Sunlit
N/A
Visualization observer readout
Local Sidereal Time
07:24:43
Azimuth
Unknown
Elevation
Unknown
Doppler factor
Unknown
Orbital elements
Apogee altitude
360.691 km
Perigee altitude
355.745 km
Semi-major axis
6,736.355 km
Eccentricity
0.00037
Inclination
43.0025°
RAAN
21.5617°
Arg. of periapsis
263.25°
True anomaly
96.83677°
Mean anomaly
96.795°
Eccentric anomaly
96.81588°
Mean motion
3.9256 °/min
Orbital period
91.71 mins
BSTAR
0.0011097
Loading maneuver chart data...
Computing Atmospheric mass density...
Loading historical data...
Loading historical data...
Loading historical data...
Loading historical data...
Loading historical data...
Loading historical data...
Loading historical data...

Documentation

Showing up to 5 results
|